Location: Elk Forest
(39.5314°N, 75.8738°W)
Time: 23:31:24
(UTC-04:00)

Daily predictions for brighter satellites

Satellite Brightness Start Highest point End
(mag) Time Altitude Azimuth Time Altitude Azimuth Time Altitude Azimuth
Meteor 1-29 3.4 21:02:52 10° NNE 21:06:09 41° E 21:09:25 10° S
Meteor 2-15 Rocket 4.5 21:03:33 10° S 21:09:36 86° E 21:15:43 10° N
USA 186 3.0 21:08:27 10° SSW 21:10:28 27° W 21:12:26 10° NW
Abrixas rocket 4.3 21:08:15 10° NW 21:10:53 22° NNE 21:13:31 10° ENE
Cosmos 2208 Rocket 4.3 21:06:01 10° N 21:11:17 56° ENE 21:16:35 10° SSE
Cosmos 2237 Rocket 3.5 21:07:47 10° NW 21:12:57 38° WSW 21:18:05 10° S
Cosmos 2100 Rocket 4.4 21:07:08 10° N 21:13:17 50° E 21:19:25 10° SSE
RESURS DK-1 3.9 21:12:46 10° N 21:16:13 24° ENE 21:19:38 10° ESE
Cosmos 2173 Rocket 4.3 21:15:31 10° N 21:21:33 52° E 21:27:37 10° SSE
Cosmos 1570 Rocket 4.0 21:16:33 10° NNW 21:21:53 78° ENE 21:27:07 10° SSE
SAR-Lupe-4 3.6 21:19:24 10° SSE 21:22:57 71° ENE 21:26:32 10° N
Cosmos 2061 Rocket 4.4 21:17:13 10° N 21:23:26 51° E 21:29:38 10° SSE
USA 32 4.2 21:18:52 10° S 21:24:06 78° W 21:29:23 10° N
Cosmos 1340 Rocket 3.8 21:22:49 10° SSW 21:26:44 51° WNW 21:30:43 10° N
Cosmos 1674 2.6 21:23:05 10° S 21:26:49 65° E 21:30:32 10° NNE
ARGOS 4.0 21:23:55 10° SE 21:28:41 34° ENE 21:33:31 10° N
Cosmos 1939 Rocket 3.3 21:25:09 10° S 21:29:06 62° W 21:33:09 10° NNW
Cosmos 1076 Rocket 3.5 21:26:09 10° S 21:30:30 71° E 21:34:51 10° NNE
Terra 4.1 21:30:48 10° ENE 21:31:31 10° ENE 21:32:14 10° NE
USA 234 3.7 21:27:52 10° ENE 21:33:49 36° SE 21:39:43 10° SSW
Cosmos 1242 Rocket 2.5 21:32:27 10° N 21:36:11 76° E 21:39:42 11° SSE
Cosmos 1408 Rocket 3.7 21:34:19 10° S 21:38:29 52° E 21:42:42 10° NNE
SL-16 R/B 2.7 21:33:18 10° NNW 21:38:51 57° WSW 21:44:21 10° S
Cosmos 1908 3.2 21:36:45 10° N 21:40:38 88° W 21:44:28 10° S
SAR-Lupe-1 4.2 21:38:53 10° S 21:42:28 76° WSW 21:46:05 10° NNW
Cosmos 1867 4.2 21:38:50 10° SW 21:44:12 60° NW 21:49:37 10° NNE
Cosmos 468 Rocket 4.2 21:39:22 10° N 21:44:23 53° ENE 21:48:17 16° SE
ERS-1 Rocket 3.0 21:41:48 11° SSE 21:46:38 80° ENE 21:51:41 10° N
Cosmos 2221 3.2 21:42:25 10° NNW 21:46:44 56° W 21:51:01 10° S
KORONAS-FOTON 3.7 21:43:34 10° S 21:47:22 79° E 21:51:10 10° N
Cosmos 1802 Rocket 4.0 21:42:52 10° N 21:49:02 75° E 21:54:52 12° SSE
Atlas Centaur 2 3.3 21:55:57 10° SSW 21:56:41 10° SSW 21:57:20 10° S
Tiangong 1 1.9 21:55:30 10° WNW 21:58:12 41° N 22:00:24 13° ENE
Cosmos 1500 Rocket 4.5 21:57:18 20° SE 21:59:28 31° E 22:03:23 10° NNE
NOAA 11 4.3 22:02:06 13° S 22:06:54 76° WSW 22:12:21 10° NNW
Abrixas 2.2 22:05:46 10° SW 22:08:24 51° SE 22:09:36 26° E
H-2A R/B 2.4 22:07:55 22° SE 22:11:14 54° ENE 22:16:31 10° N
Cosmos 2016 Rocket 4.0 22:06:35 10° N 22:12:51 85° W 22:17:58 16° S
CZ-4C R/B 4.0 22:14:46 12° E 22:14:46 12° E 22:15:51 10° E
Cosmos 1766 Rocket 4.3 22:12:39 10° SSW 22:16:51 51° W 22:21:07 10° N
Meteor 2-10 4.2 22:11:46 10° N 22:17:25 71° E 22:21:00 24° SSE
MetOp-B 4.3 22:14:15 16° S 22:18:30 69° WSW 22:23:51 10° NNW
Cosmos 1328 Rocket 3.4 22:17:26 10° N 22:21:47 81° E 22:23:58 29° SSE
Cosmos 1626 3.0 22:24:03 30° ESE 22:24:24 31° E 22:27:43 10° NNE
Cosmos 371 Rocket 3.2 22:19:57 10° NNW 22:24:48 85° ENE 22:27:15 30° SSE
ERBS 2.3 22:21:30 10° NW 22:24:53 70° NE 22:25:48 43° ESE
Cosmos 1151 Rocket 3.5 22:20:51 10° N 22:25:05 47° E 22:26:36 33° SE
Cosmos 1515 Rocket 3.5 22:24:37 10° N 22:28:57 69° E 22:30:41 35° SSE
Cosmos 1726 2.7 22:25:58 10° NNW 22:29:34 52° W 22:31:25 25° SSW
USA 245 3.5 22:28:04 30° S 22:29:38 62° W 22:33:51 10° NNW
H-2A R/B 3.3 22:30:44 24° E 22:31:56 28° ENE 22:35:34 10° N
Cosmos 1743 Rocket 3.5 22:29:55 21° SSW 22:32:45 79° W 22:37:05 10° N
Delta 2 Rocket 4.2 22:27:50 10° WSW 22:33:24 52° S 22:36:56 22° ESE
Cosmos 2263 Rocket 2.1 22:29:13 16° S 22:33:38 67° ESE 22:39:11 10° NNE
Meteor 1-27 4.4 22:29:57 10° N 22:35:44 62° E 22:38:24 31° SSE
GPS 2-05 Rocket1 4.3 22:33:26 10° WSW 22:34:46 21° SW 22:34:46 21° SW
Cosmos 2233 Rocket 4.0 22:30:31 10° N 22:36:41 64° E 22:39:46 30° SSE
SPOT 5 3.3 22:35:37 23° S 22:38:33 59° W 22:43:35 10° NNW
Cosmos 1356 3.3 22:38:22 54° SSE 22:39:02 74° E 22:42:32 10° NNE
Cosmos 1300 3.2 22:35:34 10° NNW 22:39:20 54° W 22:40:57 30° SSW
Lacrosse 5 2.2 22:36:18 10° NW 22:41:14 53° SW 22:43:10 33° S
Cosmos 2228 Rocket 3.4 22:37:53 10° NNW 22:42:26 65° W 22:44:39 29° SSW
Cosmos 1354 Rocket 4.1 22:40:44 32° SSE 22:42:54 56° ESE 22:48:01 10° NNE
Cosmos 1814 Rocket 4.4 22:40:21 10° NNW 22:45:36 60° WSW 22:48:14 29° S
SL-14 R/B 4.4 22:44:49 16° SW 22:47:42 41° W 22:51:26 10° N
Abrixas rocket 2.0 22:44:41 10° WNW 22:47:57 89° S 22:47:58 88° SE
Cosmos 2058 2.8 22:47:52 43° S 22:49:10 83° E 22:53:24 10° N
Cosmos 841 Rocket 3.4 22:48:01 10° NNW 22:53:17 84° WSW 22:55:14 40° SSE
Landsat 7 3.8 22:51:51 40° S 22:53:34 85° WSW 22:58:22 10° NNW
EO 1 Delta rocket 4.4 22:51:25 26° SSW 22:53:48 52° W 22:58:20 10° NNW
Cosmos 1763 Rocket 3.6 22:48:54 10° NNW 22:53:56 64° WSW 22:55:57 35° S
RESURS DK-1 3.9 22:50:40 10° NW 22:54:14 27° WSW 22:55:44 22° SW
DMSP B5D2-2 4.0 22:50:52 10° NNE 22:56:06 87° WNW 22:58:55 28° SSW
H-2A ROCKET BODY 3.6 22:56:39 10° SW 23:01:09 36° SSE 23:17:22 10° E
SPOT 1/Viking Rocket 4.3 23:04:06 26° SSW 23:06:32 44° W 23:11:28 10° NNW
Cosmos 1844 Rocket 3.8 23:07:26 25° E 23:07:26 25° E 23:11:32 10° NE
Terra 1.7 23:07:16 51° S 23:08:30 87° WSW 23:13:18 10° NNW
Cosmos 1455 2.1 23:08:35 10° N 23:12:26 74° ENE 23:12:26 74° ENE
Sich 1 3.7 23:14:24 38° E 23:14:24 38° E 23:18:02 10° NNE
USA 234 3.7 23:10:33 10° NE 23:17:00 63° NW 23:23:24 10° WSW
CZ-4 R/B 3.7 23:14:13 10° NNE 23:19:04 75° ESE 23:19:49 60° SSE
Cosmos 1943 3.8 23:14:57 10° NW 23:20:20 47° WSW 23:22:12 35° SSW
Cosmos 2151 4.3 23:19:26 23° SW 23:21:27 35° WNW 23:25:26 10° N
Cosmos 304 Rocket 3.7 23:18:52 10° NNW 23:23:40 80° WSW 23:24:23 64° S
Cosmos 836 Rocket 4.5 23:19:32 10° NNW 23:24:51 79° WSW 23:26:00 55° S
Cosmos 2285 Rocket 4.0 23:21:18 10° NNW 23:27:40 81° WSW 23:29:42 46° S
deb Chang Zheng 4 3.6 23:24:21 10° N 23:28:44 76° WNW 23:29:24 61° SW
Cosmos 1707 Rocket 3.5 23:26:30 10° N 23:30:59 68° E 23:31:06 68° E
Cosmos 2034 Rocket 4.2 23:25:27 10° N 23:31:42 56° E 23:33:16 45° SE
SME Rocket 3.2 23:32:06 58° ENE 23:32:09 58° ENE 23:36:39 10° N
Cosmos 1869 3.6 23:28:16 10° N 23:31:45 56° NE 23:31:45 56° NE
Tiangong 1 3.7 23:31:06 10° WNW 23:31:32 13° WNW 23:31:32 13° WNW
Cosmos 1891 Rocket 4.4 23:30:42 10° N 23:36:44 69° E 23:38:06 53° SE
DELTA 2 DEB (DPAF) 4.0 23:37:15 75° E 23:37:24 76° ENE 23:41:53 10° N
CZ-2C R/B 3.6 23:36:32 10° NE 23:40:52 31° E 23:40:52 31° E
Spot 4 3.8 23:42:04 69° SSW 23:42:35 78° WSW 23:47:29 10° NNW
Cosmos 1400 Rocket 4.1 23:44:03 31° ENE 23:44:03 31° ENE 23:46:51 10° NNE
CZ-4C R/B 3.5 23:43:30 79° NE 23:43:30 79° NE 23:47:49 10° N
Cosmos 1666 Rocket 3.5 23:45:24 87° W 23:45:24 87° W 23:49:54 10° N
CZ-4B R/B 3.7 23:44:07 10° N 23:49:23 71° WNW 23:50:35 52° SW
Meteor 2-10 Rocket 4.3 23:44:54 10° N 23:50:00 40° ENE 23:50:42 38° E
Cosmos 540 Rocket 3.8 23:45:21 10° NNW 23:50:22 53° WSW 23:50:56 50° SW
H-2A R/B 4.1 23:48:33 14° WSW 23:50:57 19° W 23:54:40 10° NW
Cosmos 968 Rocket 3.3 23:52:54 74° SSE 23:53:18 81° ESE 23:58:36 10° NNE
